Simultaneous Nadir Overpasses (SNOs) Predictions

Prediction of SNOs between AQUA and NPP Satellite Orbit:

Table of predicted SNOs for the next 14.0 days since TLE Epoch: 11/24/2012
Index Date (AQUA) Time (AQUA) Lat,Lon (AQUA) SZA (AQUA ) Date (NPP) Time (NPP) Lat,Lon (NPP) SZA (NPP ) Distance(km) Time Diff (sec)
1 11/26/2012 14:54:08 -76.45, 16.82 63.40 11/26/2012 14:53:16 -76.44, 16.74 63.34 2.35 52
2 11/26/2012 15:43:14 77.37,-172.17 115.59 11/26/2012 15:43:39 77.37,-172.19 115.58 0.49 25
3 11/29/2012 07:10:23 -76.97, 134.53 63.46 11/29/2012 07:09:58 -76.97, 134.58 63.45 1.42 25
4 11/29/2012 07:59:36 77.54, -55.56 115.90 11/29/2012 08:00:29 77.54, -55.64 115.87 2.03 53
5 12/01/2012 22:37:31 76.48, 81.10 117.52 12/01/2012 22:36:18 76.49, 81.16 117.58 1.67 73
6 12/01/2012
